Regional Weather Roundup
Issued by NWS

Home | Current Version | Previous Version | Graphics & Text | Print | Product List | Glossary Off
Versions: 1 2 3 4 5 6 7 8 9 10 11 12 13 14 15 16 17 18 19 20 21 22 23 24 25 26 27 28 29 30 31 32 33 34 35 36 37 38 39 40 41 42 43 44 45 46 47 48 49 50

000
ASUS43 KTOP 251608
RWRKS

WEATHER ROUNDUP FOR KANSAS
NATIONAL WEATHER SERVICE GOODLAND KS
1100 AM CDT THU MAY 25 2017

NOTE:  "FAIR" INDICATES FEW OR NO CLOUDS BELOW 12,000 FEET WITH NO
SIGNIFICANT WEATHER AND/OR OBSTRUCTIONS TO VISIBILITY.

KSZ001>006-013>018-027>032-041>047-251700-
NORTHWEST KANSAS

CITY           SKY/WX    TMP DP  RH WIND       PRES   REMARKS
GOODLAND       SUNNY     74  50  42 N13       29.52S
HAYS           SUNNY     68  51  54 SW20      29.58R
HILL CITY      SUNNY     68  50  52 SW12G20   29.52F
RUSSELL        SUNNY     68  51  54 S24       29.51F
$$

KSZ061>065-074>080-084>089-251700-
SOUTHWEST KANSAS

CITY           SKY/WX    TMP DP  RH WIND       PRES   REMARKS
DODGE CITY     CLOUDY    67  51  56 S22       29.51F
ELKHART          N/A     82  45  27 MISG        N/A
GARDEN CITY    SUNNY     69  50  50 SW12      29.52F
GREAT BEND     SUNNY     66  51  58 S21       29.55R
LIBERAL        CLOUDY    67  52  58 S10       29.54F
PRATT          CLOUDY    59  46  61 S21       29.55F
$$

KSZ066>073-081>083-090>101-251700-
SOUTHEAST KANSAS

CITY           SKY/WX    TMP DP  RH WIND       PRES   REMARKS
CHANUTE        SUNNY     70  49  47 S17G25    29.70F
COFFEYVILLE    SUNNY     70  52  52 SE16      29.70F
HUTCHINSON     SUNNY     67  48  50 SE25G33   29.55F
MEDICINE LODGE   N/A     66  49  54 S12G20    29.57F
NEWTON         SUNNY     69  49  48 S25G31    29.62F
PARSONS        SUNNY     69  48  47 S10G20    29.71F
WICHITA INTL   MOSUNNY   71  51  49 S21G30    29.61F
WICHITA JABRA  SUNNY     70  50  49 S23G35    29.62F
WICHITA MCCONL SUNNY     70  48  45 S25G31    29.62F
WINFIELD       SUNNY     71  50  47 SE21G32   29.64F
$$

KSZ007>012-019>026-033>040-048>060-102>105-251700-
NORTHEAST KANSAS

CITY           SKY/WX    TMP DP  RH WIND       PRES   REMARKS
CONCORDIA      SUNNY     66  49  54 S21G31    29.57F
EMPORIA        SUNNY     67  48  50 S17G26    29.66F
LAWRENCE       SUNNY     70  51  51 SE16G22   29.69F
MANHATTAN      SUNNY     70  49  47 S18       29.62F
MARYSVILLE     SUNNY     68  50  52 S14G23    29.61F
OLATHE IND     SUNNY     68  48  48 S16       29.71F
OLATHE EXE     SUNNY     66  50  56 S14       29.71F
SALINA         SUNNY     72  49  44 S23G32    29.57F
TOPEKA BILLARD SUNNY     69  50  50 S14       29.67F
TOPEKA FORBES  SUNNY     70  49  47 S17G26    29.67F
$$




USA.gov is the U.S. government's official web portal to all federal, state and local government web resources and services.